TimeEDT,TemperatureF,Dew PointF,Humidity,Sea Level PressureIn,VisibilityMPH,Wind Direction,Wind SpeedMPH,Gust SpeedMPH,PrecipitationIn,Events,Conditions,WindDirDegrees,DateUTC
12:54 AM,79.0,69.1,72,30.08,10.0,South,8.1,-,N/A,,Clear,170,2013-08-08 04:54:00
1:54 AM,78.1,69.1,74,30.07,10.0,South,6.9,-,N/A,,Clear,190,2013-08-08 05:54:00
2:54 AM,78.1,69.1,74,30.07,10.0,South,9.2,-,N/A,,Clear,190,2013-08-08 06:54:00
3:54 AM,77.0,69.1,76,30.07,10.0,South,5.8,-,N/A,,Clear,190,2013-08-08 07:54:00
4:54 AM,77.0,69.1,76,30.06,10.0,South,5.8,-,N/A,,Clear,170,2013-08-08 08:54:00
5:54 AM,78.1,69.1,74,30.06,10.0,South,6.9,-,N/A,,Partly Cloudy,190,2013-08-08 09:54:00
6:54 AM,78.1,69.1,74,30.07,10.0,South,8.1,-,N/A,,Clear,190,2013-08-08 10:54:00
7:54 AM,80.1,69.1,69,30.08,10.0,South,8.1,-,N/A,,Clear,190,2013-08-08 11:54:00
8:54 AM,81.0,70.0,69,30.08,10.0,South,6.9,-,N/A,,Clear,190,2013-08-08 12:54:00
9:54 AM,84.0,71.1,65,30.08,10.0,SSW,9.2,-,N/A,,Scattered Clouds,210,2013-08-08 13:54:00
10:20 AM,84.2,71.6,66,30.08,10.0,SSW,8.1,16.1,N/A,,Mostly Cloudy,200,2013-08-08 14:20:00
10:54 AM,86.0,71.1,61,30.08,10.0,SW,9.2,-,N/A,,Mostly Cloudy,220,2013-08-08 14:54:00
11:17 AM,86.0,69.8,58,30.08,10.0,SSW,6.9,-,N/A,,Scattered Clouds,200,2013-08-08 15:17:00
11:54 AM,87.1,70.0,57,30.07,10.0,South,10.4,-,N/A,,Scattered Clouds,180,2013-08-08 15:54:00
12:54 PM,87.1,68.0,53,30.06,10.0,SSW,9.2,-,N/A,,Partly Cloudy,200,2013-08-08 16:54:00
1:54 PM,88.0,69.1,53,30.06,10.0,SSW,8.1,-,N/A,,Clear,200,2013-08-08 17:54:00
2:54 PM,90.0,69.1,50,30.03,10.0,SSW,9.2,-,N/A,,Partly Cloudy,210,2013-08-08 18:54:00
3:54 PM,90.0,69.1,50,30.03,10.0,South,6.9,-,N/A,,Partly Cloudy,190,2013-08-08 19:54:00
5:54 PM,87.1,70.0,57,30.02,10.0,South,12.7,-,N/A,,Partly Cloudy,180,2013-08-08 21:54:00
6:54 PM,86.0,71.1,61,30.02,10.0,South,8.1,-,N/A,,Scattered Clouds,170,2013-08-08 22:54:00
7:54 PM,84.9,71.1,63,30.02,10.0,SSE,6.9,-,N/A,,Clear,160,2013-08-08 23:54:00
8:38 PM,84.2,71.6,66,30.03,10.0,SSE,4.6,-,N/A,,Mostly Cloudy,160,2013-08-09 00:38:00
8:51 PM,82.4,69.8,66,30.04,10.0,South,6.9,-,N/A,,Scattered Clouds,180,2013-08-09 00:51:00
8:54 PM,82.9,70.0,65,30.04,10.0,South,8.1,-,N/A,,Partly Cloudy,180,2013-08-09 00:54:00
9:54 PM,82.0,70.0,67,30.04,10.0,South,5.8,-,N/A,,Clear,170,2013-08-09 01:54:00
10:54 PM,82.0,71.1,69,30.03,10.0,South,8.1,-,N/A,,Clear,170,2013-08-09 02:54:00
11:54 PM,81.0,73.0,77,30.02,10.0,South,6.9,-,N/A,,Clear,180,2013-08-09 03:54:00